Overview Statistics Trail Chart Weather Telemetry Raw packets
 

This is the latest recevied weather packets stored in our database for station/object KO4FQW-11. If no packets are shown the sender has not sent any weather packets the latest 10 day(s).

<< 1 2 3 4 5 >>
Time Temp. Humidity Pressure Rain* Wind** Luminosity Snow
1788547056 32.78° C 55% 1013 hPa 1.78 mm - - -
1788546095 32.78° C 55% 1013 hPa 1.78 mm - - -
1788545135 31.67° C 61% 1013 hPa 1.78 mm - - -
1788544678 31.67° C 61% 1013 hPa 1.78 mm - - -
1788544176 31.67° C 61% 1013 hPa 1.78 mm - - -
1788543215 31.67° C 61% 1013 hPa 1.78 mm - - -
1788542256 31.67° C 61% 1013 hPa 1.78 mm - - -
1788540335 31.11° C 63% 1014 hPa 1.78 mm - - -
1788539377 31.11° C 63% 1014 hPa 1.78 mm - - -
1788538415 31.11° C 63% 1014 hPa 1.78 mm - - -
1788537455 30.56° C 64% 1014 hPa 1.78 mm - - -
1788536495 30.56° C 64% 1014 hPa 1.78 mm - - -
1788535536 30.56° C 64% 1014 hPa 1.78 mm - - -
1788534864 28.89° C 62% 1013 hPa 1.27 mm - - -
1788534576 28.89° C 62% 1013 hPa 1.27 mm - - -
1788533615 28.89° C 62% 1013 hPa 1.27 mm - - -
1788532655 28.89° C 62% 1013 hPa 1.27 mm - - -
1788531915 28.89° C 62% 1013 hPa 1.27 mm - - -
1788531695 28.89° C 62% 1013 hPa 1.27 mm - - -
1788529776 26.11° C 76% 1013 hPa 1.27 mm - - -
1788529392 26.11° C 76% 1013 hPa 1.27 mm - - -
1788528815 26.11° C 76% 1013 hPa 1.27 mm - - -
1788527855 26.11° C 76% 1013 hPa 1.27 mm - - -
1788526895 22.78° C 87% 1014 hPa 1.27 mm - - -
1788525935 22.78° C 87% 1014 hPa 1.27 mm - - -

* Rain latest hour (hover to see other rain measurements)
** Current wind speed in m/s (hover to see current wind gust speed)